Location: Pl�tzky
(52.0521°N, 11.8020°E)
Time: 00:14:36
(UTC+00:00)

N. Korean satellite - Pass Details

Date: 27 January 2021
Orbit: 451 x 502 km, 97.2° (Epoch: 06 March)

Event Time Altitude Azimuth Distance (km) Brightness Sun altitude
Rises 05:21:30 0° 7° (N) 2,518 10.2 -15.0°
Reaches altitude 10° 05:23:38 10° 1° (N) 1,628 9.1 -14.7°
Maximum altitude 05:26:55 41° 290° (WNW) 684 6.8 -14.2°
Drops below altitude 10° 05:30:10 10° 219° (SW) 1,595 8.9 -13.7°
Sets 05:32:14 0° 212° (SSW) 2,459 9.9 -13.4°
